Overview Statistics Trail Chart Weather Telemetry Raw packets
 

This is the latest recevied weather packets stored in our database for station/object SV4JYD-13. If no packets are shown the sender has not sent any weather packets the latest 10 day(s).

<< 7 8 9 10 11 12 13 >>
Time Temp. Humidity Pressure Rain* Wind** Luminosity Snow
1777829393 13.89° C 68% 1019 hPa 0 mm - - -
1777828493 13.89° C 70% 1019 hPa 0 mm - - -
1777827592 13.33° C 77% 1018 hPa 0 mm - - -
1777826692 13.89° C 70% 1018 hPa 0 mm - - -
1777825792 14.44° C 70% 1018 hPa 0 mm - - -
1777824892 15° C 61% 1018 hPa 0 mm - - -
1777823991 15.56° C 50% 1018 hPa 0 mm - - -
1777823091 15.56° C 49% 1018 hPa 0 mm - - -
1777822191 15.56° C 47% 1019 hPa 0 mm - - -
1777821291 15.56° C 42% 1019 hPa 0 mm - - -
1777820390 15.56° C 42% 1018 hPa 0 mm - - -
1777819490 15.56° C 43% 1018 hPa 0 mm - - -
1777818590 12.78° C 52% 1019 hPa 0 mm - - -
1777817689 13.33° C 52% 1019 hPa 0 mm - - -
1777816789 13.89° C 52% 1019 hPa 0 mm - - -
1777815889 14.44° C 52% 1019 hPa 0 mm - - -
1777814989 10.56° C 56% 1019 hPa 0 mm - - -
1777814088 11.11° C 56% 1019 hPa 0 mm - - -
1777813188 11.67° C 56% 1019 hPa 0 mm - - -
1777812288 8.33° C 74% 1019 hPa 0 mm - - -
1777812068 8.33° C 74% 1019 hPa 0 mm - - -
1777811168 8.89° C 74% 1020 hPa 0 mm - - -
1777810268 9.44° C 74% 1020 hPa 0 mm - - -
1777809368 10° C 74% 1020 hPa 0 mm - - -
1777808467 10.56° C 74% 1020 hPa 0 mm - - -

* Rain latest hour (hover to see other rain measurements)
** Current wind speed in m/s (hover to see current wind gust speed)